| time (UTC) | temp C | wind direction | speed KPH | gust KPH | rain 1hr cm | rain 24hr cm | rain mn cm | humidity % | barometer mb |
| 20260504035530 | 13 | 240 | 0.0 | 6.4 | 0.00 | 0.00 | 0.00 | 68 | 1005.9 |
| 20260504035030 | 13 | 275 | 1.6 | 8.0 | 0.00 | 0.00 | 0.00 | 67 | 1006.0 |
| 20260504034548 | 13 | 216 | 0.0 | 8.0 | 0.00 | 0.00 | 0.00 | 67 | 1005.9 |
| 20260504034030 | 13 | 210 | 1.6 | 8.0 | 0.00 | 0.00 | 0.00 | 66 | 1005.8 |
| 20260504033537 | 13 | 0 | 1.6 | 8.0 | 0.00 | 0.00 | 0.00 | 66 | 1006.0 |
| 20260504033047 | 13 | 0 | 0.0 | 6.4 | 0.00 | 0.00 | 0.00 | 66 | 1006.0 |
| 20260504032530 | 13 | 221 | 1.6 | 8.0 | 0.00 | 0.00 | 0.00 | 66 | 1006.1 |
| 20260504032029 | 13 | 203 | 1.6 | 8.0 | 0.00 | 0.00 | 0.00 | 66 | 1006.1 |
| 20260504031603 | 13 | 196 | 1.6 | 6.4 | 0.00 | 0.00 | 0.00 | 66 | 1006.1 |
| 20260504031032 | 13 | 218 | 1.6 | 6.4 | 0.00 | 0.00 | 0.00 | 66 | 1006.2 |
| 20260504030529 | 14 | 222 | 1.6 | 8.0 | 0.00 | 0.00 | 0.00 | 65 | 1006.1 |
| 20260504030046 | 13 | 223 | 1.6 | 8.0 | 0.00 | 0.00 | 0.00 | 65 | 1006.1 |
| 20260504025535 | 13 | 194 | 1.6 | 6.4 | 0.00 | 0.00 | 0.00 | 65 | 1006.1 |
| 20260504025029 | 13 | 0 | 1.6 | 6.4 | 0.00 | 0.00 | 0.00 | 65 | 1006.2 |
| 20260504024543 | 13 | 0 | 0.0 | 6.4 | 0.00 | 0.00 | 0.00 | 65 | 1006.1 |
| 20260504024031 | 13 | 219 | 0.0 | 6.4 | 0.00 | 0.00 | 0.00 | 65 | 1006.0 |
| 20260504023530 | 13 | 219 | 1.6 | 6.4 | 0.00 | 0.00 | 0.00 | 65 | 1006.1 |
| 20260504023041 | 13 | 0 | 0.0 | 6.4 | 0.00 | 0.00 | 0.00 | 66 | 1006.2 |
| 20260504022531 | 13 | 0 | 1.6 | 6.4 | 0.00 | 0.00 | 0.00 | 66 | 1006.1 |
| 20260504022030 | 13 | 0 | 0.0 | 3.2 | 0.00 | 0.00 | 0.00 | 66 | 1006.1 |
| 20260504021546 | 13 | 218 | 0.0 | 3.2 | 0.00 | 0.00 | 0.00 | 67 | 1006.1 |
| 20260504021029 | 13 | 0 | 0.0 | 3.2 | 0.00 | 0.00 | 0.00 | 66 | 1006.0 |
| 20260504020529 | 13 | 0 | 0.0 | 4.8 | 0.00 | 0.00 | 0.00 | 65 | 1006.1 |
| 20260504020045 | 13 | 0 | 0.0 | 4.8 | 0.00 | 0.00 | 0.00 | 64 | 1006.1 |
| 20260504015530 | 13 | 0 | 0.0 | 6.4 | 0.00 | 0.00 | 0.00 | 64 | 1006.0 |
| 20260504015031 | 13 | 0 | 0.0 | 6.4 | 0.00 | 0.00 | 0.00 | 64 | 1006.0 |
| 20260504014545 | 14 | 0 | 1.6 | 3.2 | 0.00 | 0.00 | 0.00 | 66 | 1006.0 |
| 20260504014030 | 14 | 0 | 0.0 | 3.2 | 0.00 | 0.00 | 0.00 | 62 | 1005.8 |
| 20260504013529 | 15 | 0 | 0.0 | 0.0 | 0.00 | 0.00 | 0.00 | 62 | 1005.9 |
| 20260504013044 | 15 | 0 | 0.0 | 1.6 | 0.00 | 0.00 | 0.00 | 61 | 1005.8 |
| 20260504012529 | 15 | 0 | 0.0 | 1.6 | 0.00 | 0.00 | 0.00 | 60 | 1005.7 |
| 20260504012029 | 16 | 0 | 0.0 | 1.6 | 0.00 | 0.00 | 0.00 | 59 | 1005.7 |
| 20260504011544 | 16 | 0 | 0.0 | 1.6 | 0.00 | 0.00 | 0.00 | 57 | 1005.6 |
| 20260504011030 | 16 | 0 | 0.0 | 1.6 | 0.00 | 0.00 | 0.00 | 56 | 1005.7 |
| 20260504010532 | 17 | 0 | 0.0 | 0.0 | 0.00 | 0.00 | 0.00 | 55 | 1005.6 |
| 20260504010047 | 17 | 0 | 0.0 | 0.0 | 0.00 | 0.00 | 0.00 | 53 | 1005.5 |
| 20260504005530 | 17 | 0 | 0.0 | 1.6 | 0.00 | 0.00 | 0.00 | 53 | 1005.5 |
| 20260504005030 | 17 | 0 | 0.0 | 1.6 | 0.00 | 0.00 | 0.00 | 52 | 1005.4 |
| 20260504004545 | 18 | 250 | 0.0 | 6.4 | 0.00 | 0.00 | 0.00 | 51 | 1005.5 |
| 20260504004029 | 18 | 0 | 0.0 | 6.4 | 0.00 | 0.00 | 0.00 | 51 | 1005.6 |
| 20260504003530 | 18 | 252 | 1.6 | 6.4 | 0.00 | 0.00 | 0.00 | 50 | 1005.5 |
| 20260504003047 | 18 | 0 | 1.6 | 9.7 | 0.00 | 0.00 | 0.00 | 50 | 1005.5 |
| 20260504002529 | 18 | 260 | 0.0 | 9.7 | 0.00 | 0.00 | 0.00 | 50 | 1005.5 |
| 20260504002029 | 19 | 196 | 3.2 | 9.7 | 0.00 | 0.00 | 0.00 | 49 | 1005.7 |
| 20260504001559 | 19 | 0 | 1.6 | 9.7 | 0.00 | 0.00 | 0.00 | 49 | 1005.6 |
| 20260504001030 | 19 | 263 | 1.6 | 9.7 | 0.00 | 0.00 | 0.00 | 49 | 1005.6 |
| 20260504000530 | 20 | 0 | 1.6 | 9.7 | 0.00 | 0.00 | 0.00 | 48 | 1005.8 |
| 20260504000045 | 20 | 252 | 1.6 | 14.5 | 0.00 | 0.00 | 0.00 | 48 | 1005.8 |
| 20260503235530 | 20 | 228 | 1.6 | 14.5 | 0.00 | 0.00 | 0.00 | 48 | 1005.7 |
| 20260503235030 | 20 | 215 | 3.2 | 16.1 | 0.00 | 0.00 | 0.00 | 47 | 1005.8 |
| 20260503234539 | 20 | 252 | 3.2 | 17.7 | 0.00 | 0.00 | 0.00 | 48 | 1005.7 |
| 20260503234033 | 20 | 261 | 6.4 | 17.7 | 0.00 | 0.00 | 0.00 | 48 | 1005.5 |
| 20260503233531 | 20 | 309 | 3.2 | 17.7 | 0.00 | 0.00 | 0.00 | 48 | 1005.6 |
| 20260503233045 | 20 | 202 | 4.8 | 17.7 | 0.00 | 0.00 | 0.00 | 48 | 1005.6 |
| 20260503232532 | 20 | 217 | 4.8 | 17.7 | 0.00 | 0.00 | 0.00 | 48 | 1005.6 |
| 20260503232029 | 20 | 252 | 6.4 | 17.7 | 0.00 | 0.00 | 0.00 | 48 | 1005.6 |
| 20260503231554 | 20 | 259 | 8.0 | 17.7 | 0.00 | 0.00 | 0.00 | 47 | 1005.7 |
| 20260503231030 | 20 | 221 | 6.4 | 22.5 | 0.00 | 0.00 | 0.00 | 47 | 1005.8 |
| 20260503230531 | 20 | 200 | 8.0 | 22.5 | 0.00 | 0.00 | 0.00 | 47 | 1005.7 |
| 20260503230045 | 20 | 216 | 4.8 | 17.7 | 0.00 | 0.00 | 0.00 | 46 | 1006.0 |
| 20260503225533 | 20 | 240 | 6.4 | 17.7 | 0.00 | 0.00 | 0.00 | 47 | 1005.9 |
| 20260503225029 | 20 | 298 | 6.4 | 22.5 | 0.00 | 0.00 | 0.00 | 46 | 1005.9 |
| 20260503224545 | 20 | 247 | 4.8 | 22.5 | 0.00 | 0.00 | 0.00 | 46 | 1006.1 |
| 20260503224030 | 20 | 219 | 9.7 | 25.7 | 0.00 | 0.00 | 0.00 | 46 | 1006.1 |
| 20260503223529 | 20 | 222 | 6.4 | 25.7 | 0.00 | 0.00 | 0.00 | 45 | 1006.1 |
| 20260503223043 | 20 | 205 | 8.0 | 24.1 | 0.00 | 0.00 | 0.00 | 45 | 1006.2 |
| 20260503222529 | 20 | 219 | 6.4 | 20.9 | 0.00 | 0.00 | 0.00 | 46 | 1006.3 |
| 20260503222029 | 20 | 233 | 8.0 | 20.9 | 0.00 | 0.00 | 0.00 | 46 | 1006.2 |
| 20260503221547 | 20 | 175 | 6.4 | 27.4 | 0.00 | 0.00 | 0.00 | 46 | 1006.1 |
| 20260503221031 | 20 | 273 | 9.7 | 27.4 | 0.00 | 0.00 | 0.00 | 44 | 1006.2 |
| 20260503220533 | 20 | 241 | 9.7 | 30.6 | 0.00 | 0.00 | 0.00 | 44 | 1006.2 |
| 20260503220045 | 20 | 232 | 12.9 | 30.6 | 0.00 | 0.00 | 0.00 | 44 | 1006.1 |
| 20260503215530 | 20 | 194 | 6.4 | 29.0 | 0.00 | 0.00 | 0.00 | 45 | 1006.2 |
| 20260503215029 | 20 | 342 | 12.9 | 29.0 | 0.00 | 0.00 | 0.00 | 44 | 1006.1 |
| 20260503214552 | 20 | 329 | 6.4 | 22.5 | 0.00 | 0.00 | 0.00 | 46 | 1006.2 |
| 20260503214029 | 20 | 227 | 6.4 | 25.7 | 0.00 | 0.00 | 0.00 | 47 | 1006.1 |
| 20260503213529 | 20 | 239 | 9.7 | 29.0 | 0.00 | 0.00 | 0.00 | 46 | 1006.2 |
| 20260503213106 | 20 | 209 | 11.3 | 29.0 | 0.00 | 0.00 | 0.00 | 46 | 1006.3 |
| 20260503212529 | 20 | 232 | 14.5 | 29.0 | 0.00 | 0.00 | 0.00 | 47 | 1006.4 |
| 20260503212029 | 19 | 275 | 9.7 | 27.4 | 0.00 | 0.00 | 0.00 | 47 | 1006.4 |
| 20260503211603 | 19 | 197 | 11.3 | 27.4 | 0.00 | 0.00 | 0.00 | 47 | 1006.5 |
| 20260503211032 | 19 | 217 | 11.3 | 27.4 | 0.00 | 0.00 | 0.00 | 46 | 1006.7 |
| 20260503210532 | 19 | 222 | 11.3 | 27.4 | 0.00 | 0.00 | 0.00 | 47 | 1006.7 |
| 20260503210047 | 19 | 250 | 11.3 | 22.5 | 0.00 | 0.00 | 0.00 | 47 | 1007.0 |
| 20260503205530 | 18 | 227 | 9.7 | 29.0 | 0.00 | 0.00 | 0.00 | 48 | 1007.0 |
| 20260503205034 | 18 | 248 | 12.9 | 41.8 | 0.00 | 0.00 | 0.00 | 50 | 1007.1 |
| 20260503204601 | 18 | 269 | 14.5 | 41.8 | 0.00 | 0.00 | 0.00 | 49 | 1007.1 |
| 20260503204029 | 18 | 198 | 8.0 | 43.5 | 0.00 | 0.00 | 0.00 | 49 | 1007.3 |
| 20260503203530 | 18 | 202 | 16.1 | 43.5 | 0.00 | 0.00 | 0.00 | 47 | 1007.4 |
| 20260503203049 | 18 | 173 | 17.7 | 38.6 | 0.00 | 0.00 | 0.00 | 46 | 1007.5 |
| 20260503202529 | 18 | 254 | 16.1 | 38.6 | 0.00 | 0.00 | 0.00 | 47 | 1007.5 |
| 20260503202029 | 18 | 200 | 11.3 | 43.5 | 0.00 | 0.00 | 0.00 | 47 | 1007.7 |
| 20260503201542 | 18 | 191 | 19.3 | 43.5 | 0.00 | 0.00 | 0.00 | 46 | 1007.7 |
| 20260503201030 | 18 | 300 | 14.5 | 35.4 | 0.00 | 0.00 | 0.00 | 47 | 1007.8 |
| 20260503200530 | 18 | 244 | 11.3 | 40.2 | 0.00 | 0.00 | 0.00 | 48 | 1007.8 |
| 20260503200041 | 18 | 207 | 14.5 | 40.2 | 0.00 | 0.00 | 0.00 | 48 | 1007.9 |
| 20260503195530 | 17 | 226 | 19.3 | 38.6 | 0.00 | 0.00 | 0.00 | 51 | 1008.1 |
| 20260503195029 | 17 | 193 | 12.9 | 38.6 | 0.00 | 0.00 | 0.00 | 53 | 1008.3 |
| 20260503194546 | 17 | 198 | 14.5 | 38.6 | 0.00 | 0.00 | 0.00 | 53 | 1008.3 |
| 20260503194030 | 17 | 215 | 17.7 | 38.6 | 0.00 | 0.00 | 0.00 | 54 | 1008.3 |
| 20260503193532 | 16 | 220 | 11.3 | 37.0 | 0.00 | 0.00 | 0.00 | 55 | 1008.5 |
| 20260503193046 | 16 | 221 | 16.1 | 48.3 | 0.00 | 0.00 | 0.00 | 55 | 1008.4 |
| 20260503192529 | 16 | 188 | 20.9 | 48.3 | 0.00 | 0.00 | 0.00 | 55 | 1008.8 |
| 20260503192029 | 16 | 223 | 19.3 | 33.8 | 0.00 | 0.00 | 0.00 | 54 | 1008.9 |
| 20260503191557 | 17 | 163 | 12.9 | 35.4 | 0.00 | 0.00 | 0.00 | 54 | 1009.0 |
| 20260503191030 | 17 | 180 | 14.5 | 38.6 | 0.00 | 0.00 | 0.00 | 56 | 1009.2 |
| 20260503190530 | 16 | 173 | 12.9 | 38.6 | 0.00 | 0.00 | 0.00 | 53 | 1009.1 |
| 20260503190049 | 16 | 200 | 12.9 | 45.1 | 0.00 | 0.00 | 0.00 | 53 | 1009.1 |
| 20260503185534 | 16 | 280 | 16.1 | 45.1 | 0.00 | 0.00 | 0.00 | 52 | 1009.0 |
| 20260503185034 | 16 | 198 | 16.1 | 43.5 | 0.00 | 0.00 | 0.00 | 52 | 1008.8 |
| 20260503184607 | 16 | 213 | 17.7 | 43.5 | 0.00 | 0.00 | 0.00 | 50 | 1008.7 |
| 20260503184030 | 16 | 266 | 14.5 | 38.6 | 0.00 | 0.00 | 0.00 | 48 | 1008.8 |
| 20260503183529 | 16 | 194 | 11.3 | 37.0 | 0.00 | 0.00 | 0.00 | 52 | 1008.7 |
| 20260503183052 | 16 | 189 | 17.7 | 37.0 | 0.00 | 0.00 | 0.00 | 50 | 1008.8 |
| 20260503182529 | 16 | 204 | 19.3 | 37.0 | 0.00 | 0.00 | 0.00 | 49 | 1009.0 |
| 20260503182030 | 16 | 202 | 12.9 | 35.4 | 0.00 | 0.00 | 0.00 | 50 | 1009.2 |
| 20260503181547 | 16 | 227 | 11.3 | 41.8 | 0.00 | 0.00 | 0.00 | 50 | 1009.0 |
| 20260503181033 | 16 | 186 | 12.9 | 41.8 | 0.00 | 0.00 | 0.00 | 49 | 1009.1 |
| 20260503180530 | 16 | 204 | 12.9 | 32.2 | 0.00 | 0.00 | 0.00 | 50 | 1009.1 |
| 20260503180045 | 16 | 180 | 14.5 | 32.2 | 0.00 | 0.00 | 0.00 | 52 | 1009.2 |
| 20260503175529 | 16 | 198 | 11.3 | 43.5 | 0.00 | 0.00 | 0.00 | 52 | 1009.3 |
| 20260503175032 | 16 | 225 | 14.5 | 43.5 | 0.00 | 0.00 | 0.00 | 53 | 1009.3 |
| 20260503174555 | 15 | 234 | 16.1 | 38.6 | 0.00 | 0.00 | 0.00 | 53 | 1009.4 |
| 20260503174029 | 15 | 167 | 14.5 | 38.6 | 0.00 | 0.00 | 0.00 | 54 | 1009.4 |
| 20260503173529 | 15 | 223 | 11.3 | 38.6 | 0.00 | 0.00 | 0.00 | 56 | 1009.6 |
| 20260503173040 | 15 | 188 | 17.7 | 38.6 | 0.00 | 0.00 | 0.00 | 58 | 1009.6 |
| 20260503172528 | 15 | 201 | 11.3 | 41.8 | 0.00 | 0.00 | 0.00 | 60 | 1009.7 |
| 20260503172029 | 14 | 173 | 14.5 | 41.8 | 0.00 | 0.00 | 0.00 | 60 | 1010.2 |
| 20260503171547 | 14 | 235 | 12.9 | 38.6 | 0.00 | 0.00 | 0.00 | 61 | 1010.2 |
| 20260503171032 | 13 | 188 | 16.1 | 38.6 | 0.00 | 0.00 | 0.00 | 63 | 1010.6 |
| 20260503170530 | 13 | 200 | 11.3 | 25.7 | 0.00 | 0.00 | 0.00 | 65 | 1010.7 |
| 20260503150535 | 12 | 213 | 16.1 | 41.8 | 0.00 | 0.00 | 0.00 | 62 | 1013.0 |
| 20260503131030 | 10 | 179 | 11.3 | 25.7 | 0.00 | 0.00 | 0.00 | 60 | 1013.8 |
| 20260503130529 | 10 | 207 | 12.9 | 24.1 | 0.00 | 0.00 | 0.00 | 60 | 1013.7 |
| 20260503110533 | 8 | 221 | 6.4 | 20.9 | 0.00 | 0.00 | 0.00 | 62 | 1013.2 |
| 20260503081556 | 8 | 219 | 8.0 | 22.5 | 0.00 | 0.00 | 0.00 | 58 | 1014.1 |
| 20260503081031 | 8 | 187 | 8.0 | 16.1 | 0.00 | 0.00 | 0.00 | 58 | 1014.1 |
| 20260503080530 | 8 | 208 | 8.0 | 16.1 | 0.00 | 0.00 | 0.00 | 58 | 1014.2 |
| 20260503072532 | 7 | 198 | 6.4 | 14.5 | 0.00 | 0.00 | 0.00 | 59 | 1014.3 |
| 20260503072029 | 7 | 217 | 4.8 | 17.7 | 0.00 | 0.00 | 0.00 | 59 | 1014.3 |
| 20260503071604 | 7 | 203 | 3.2 | 17.7 | 0.00 | 0.00 | 0.00 | 59 | 1014.3 |
| 20260503071029 | 7 | 234 | 6.4 | 17.7 | 0.00 | 0.00 | 0.00 | 59 | 1014.5 |
| 20260503070532 | 7 | 196 | 6.4 | 12.9 | 0.00 | 0.00 | 0.00 | 59 | 1014.6 |
| 20260503070110 | 7 | 205 | 4.8 | 16.1 | 0.00 | 0.00 | 0.00 | 60 | 1014.5 |
| 20260503060105 | 7 | 192 | 3.2 | 9.7 | 0.00 | 0.00 | 0.00 | 62 | 1015.0 |
| 20260503055028 | 7 | 206 | 4.8 | 11.3 | 0.00 | 0.00 | 0.00 | 62 | 1015.1 |
| 20260503054555 | 6 | 228 | 3.2 | 9.7 | 0.00 | 0.00 | 0.00 | 62 | 1015.2 |
| 20260503054029 | 6 | 222 | 1.6 | 9.7 | 0.00 | 0.00 | 0.00 | 62 | 1015.2 |
| 20260503053530 | 6 | 199 | 3.2 | 9.7 | 0.00 | 0.00 | 0.00 | 62 | 1015.2 |
| 20260503053045 | 6 | 226 | 3.2 | 12.9 | 0.00 | 0.00 | 0.00 | 63 | 1015.2 |
| 20260503052530 | 6 | 241 | 1.6 | 12.9 | 0.00 | 0.00 | 0.00 | 62 | 1015.2 |
| 20260503052030 | 6 | 256 | 3.2 | 9.7 | 0.00 | 0.00 | 0.00 | 63 | 1015.2 |
| 20260503051550 | 6 | 193 | 3.2 | 9.7 | 0.00 | 0.00 | 0.00 | 63 | 1015.3 |
| 20260503051029 | 6 | 232 | 3.2 | 9.7 | 0.00 | 0.00 | 0.00 | 63 | 1015.4 |
| 20260503050529 | 7 | 182 | 0.0 | 9.7 | 0.00 | 0.00 | 0.00 | 62 | 1015.5 |
| 20260503050043 | 7 | 205 | 3.2 | 9.7 | 0.00 | 0.00 | 0.00 | 62 | 1015.5 |
| 20260503045530 | 7 | 221 | 3.2 | 9.7 | 0.00 | 0.00 | 0.00 | 62 | 1015.5 |
| 20260503045030 | 7 | 238 | 1.6 | 9.7 | 0.00 | 0.00 | 0.00 | 62 | 1015.6 |
| 20260503044540 | 7 | 212 | 1.6 | 9.7 | 0.00 | 0.00 | 0.00 | 61 | 1015.6 |
| 20260503044028 | 7 | 227 | 3.2 | 9.7 | 0.00 | 0.00 | 0.00 | 61 | 1015.6 |
| 20260503043529 | 7 | 223 | 3.2 | 9.7 | 0.00 | 0.00 | 0.00 | 62 | 1015.6 |
| 20260503043046 | 7 | 231 | 3.2 | 9.7 | 0.00 | 0.00 | 0.00 | 62 | 1015.5 |
| 20260503042532 | 7 | 200 | 3.2 | 6.4 | 0.00 | 0.00 | 0.00 | 62 | 1015.6 |
| 20260503042032 | 7 | 234 | 3.2 | 8.0 | 0.00 | 0.00 | 0.00 | 62 | 1015.7 |
| 20260503041546 | 7 | 209 | 3.2 | 8.0 | 0.00 | 0.00 | 0.00 | 63 | 1015.8 |
| 20260503041030 | 7 | 0 | 1.6 | 8.0 | 0.00 | 0.00 | 0.00 | 62 | 1015.7 |
| 20260503040532 | 7 | 236 | 1.6 | 6.4 | 0.00 | 0.00 | 0.00 | 62 | 1015.7 |
| 20260503040046 | 7 | 251 | 1.6 | 6.4 | 0.00 | 0.00 | 0.00 | 63 | 1015.8 |